Showing default

NOAA 16, 26536

Orbit data source: Space-Track

NOAA 16, 26536 is a payload satellite owned by NOAA (US) in SSO that was launched on Thu, 21 Sep 2000 UTC via a TITAN II SLV launch vehicle from the Air Force Western Test Range (AFWTR). Payloads include a variety of satellites, spacecraft, and rockets equipped with specific instruments for various scientific and technological missions. These include communications satellites like Starlink; space stations such as the ISS; scientific satellites like the Hubble; Earth observation satellites from companies like Planet Labs, Umbra, and HawkEye 360; GPS; miniature CubeSats for education and research; and military/defense satellites.

Loading next visibility...
NOAA 16 details
Identifier
26536, 2000-055A
Orbit
SSO
Last TLE update18 hours ago
Origin
Flag of USNOAA (US)
ManufacturerLM/EW
MissionNon-operational Civil Weather
Bus & MotorATN, Unknown motor
Mass2,231 kg wet, 1,403 kg dry
Launch date (UTC)
2000-09-21 (24 years ago)
Launch vehicle
TITAN II SLV
Launch site
Air Force Western Test Range (AFWTR)
Object type
Payload
Rocket body
Debris
Shape & HBRBox + 1 Pan, 7 m
Radar Cross Section11.218 m², Large (>1 m²)

Expand to show TLE details & history

TLE from 18 hours ago
0 NOAA 16
1 26536U 00055A   24360.68094517  .00000283  00000-0  17142-3 0  9998
2 26536  98.5095  31.3172 0011241  51.2720 308.9457 14.13723817251138
Epoch: 2024-12-25T16:20Z
Definitive object data (Epoch: 2024-12-25T16:20:33.662Z)
Latitude-0.00002°
Longitude51.50574°
Altitude844.469 km
Speed7.433 km/s
True Right ascension02h 05m 16s
True Declination0° 00' 00"
Sunlit
Object was in daylight at TLE epoch
Visualization TLE readout
Latitude-59.99139°
Longitude67.16873°
Altitude872.536 km
Speed7.414 km/s
Apparent Right ascension00h 10m 32s
Apparent Declination-56° 40' 57"
Sunlit
Object is in daylight
Visualization observer readout
Local Sidereal Time10:05:36
Azimuth219.991° SW
Elevation-63.691°
Doppler factor1
Orbital elements
Apogee altitude851.933 km
Perigee altitude835.696 km
Semi-major axis7,221.951 km
Eccentricity0.0011241
Inclination98.5095°
RAAN31.3172°
Arg. of periapsis51.272°
True anomaly308.84543°
Mean anomaly308.9457°
Eccentric anomaly308.89557°
Mean motion3.5364 °/min
BSTAR0.00017142
Orbital period101.8 mins
Loading maneuver chart data...
Loading historical data...
Loading historical data...
Loading historical data...
Loading historical data...
Loading historical data...
Loading historical data...
Loading historical data...

NOAA 16 Visibility forecast

Observer location: undefined°, undefined

Span
Click to sort rows by Start time (UTC) header in descending order
Start Az.
Max El. time (UTC)
Max El. Az.
Max El.
End time (UTC)
End Az.
10 mins2024-12-26 15:00:22.160Z18.351° NNE2024-12-26 15:05:22.160Z135.074° SSE43.288°2024-12-26 15:10:22.160Z187.439° SSW
4 mins2024-12-26 16:43:22.160Z319.286° NNW2024-12-26 16:45:22.160Z294.54° NW14.867°2024-12-26 16:47:22.160Z271.267° WNW
4 mins2024-12-27 00:48:22.160Z82.638° E2024-12-27 00:50:22.160Z57.677° ENE15.122°2024-12-27 00:52:22.160Z33.844° NE
9 mins2024-12-27 02:26:22.160Z176.584° S2024-12-27 02:30:22.160Z278.702° WNW43.202°2024-12-27 02:35:22.160Z342.061° N
|